Showing default

COSMOS 2322, 23704

Orbit data source: Space-Track

COSMOS 2322, 23704 is a payload satellite owned by GRU (CIS) in LEO that was launched on Tue, 31 Oct 1995 UTC via a ZENIT-2 launch vehicle from the Tyuratam Missile And Space Complex (TTMTR). Payloads include a variety of satellites, spacecraft, and rockets equipped with specific instruments for various scientific and technological missions. These include communications satellites like Starlink; space stations such as the ISS; scientific satellites like the Hubble; Earth observation satellites from companies like Planet Labs, Umbra, and HawkEye 360; GPS; miniature CubeSats for education and research; and military/defense satellites.

Loading next visibility...
COSMOS 2322 details
Identifier
23704, 1995-058A
Orbit
LEO
Last TLE update8 hours ago
Origin
Flag of CISGRU (CIS)
ManufacturerYuzhnoe
MissionDefense Sigint
Bus & MotorTSELINA-2, Unknown motor
Mass3,250 kg wet, 3,250 kg dry
Launch date (UTC)
1995-10-31 (29 years ago)
Launch vehicle
ZENIT-2
Launch site
Tyuratam Missile And Space Complex (TTMTR)
Object type
Payload
Rocket body
Debris
Shape & HBRCyl, 4.5 m
Radar Cross Section5.718 m², Large (>1 m²)

Expand to show TLE details & history

TLE from 8 hours ago
0 COSMOS 2322
1 23704U 95058A   24361.56486333  .00000128  00000-0  93149-4 0  9998
2 23704  70.9873  40.4195 0011998 257.4158 102.5622 14.13710235504133
Epoch: 2024-12-26T13:33Z
Definitive object data (Epoch: 2024-12-26T13:33:24.191Z)
Latitude-0.00005°
Longitude101.52625°
Altitude850.997 km
Speed7.426 km/s
True Right ascension02h 41m 40s
True Declination0° 00' 00"
Sunlit
Object was in full shadow at TLE epoch
Visualization TLE readout
Latitude-36.2904°
Longitude-64.57937°
Altitude853.114 km
Speed7.429 km/s
Apparent Right ascension12h 36m 29s
Apparent Declination-51° 03' 25"
Sunlit
Object is in daylight
Visualization observer readout
Local Sidereal Time20:45:48
Azimuth234.356° WSW
Elevation-49.19°
Doppler factor1
Orbital elements
Apogee altitude853.296 km
Perigee altitude835.965 km
Semi-major axis7,222.767 km
Eccentricity0.0011998
Inclination70.9873°
RAAN40.4195°
Arg. of periapsis257.4158°
True anomaly102.69635°
Mean anomaly102.5622°
Eccentric anomaly102.62928°
Mean motion3.5358 °/min
BSTAR0.000093149
Orbital period101.82 mins
Loading maneuver chart data...
Loading historical data...
Loading historical data...
Loading historical data...
Loading historical data...
Loading historical data...
Loading historical data...
Loading historical data...

COSMOS 2322 Visibility forecast

Observer location: undefined°, undefined

Span
Click to sort rows by Start time (UTC) header in descending order
Start Az.
Max El. time (UTC)
Max El. Az.
Max El.
End time (UTC)
End Az.
8 mins2024-12-27 03:15:49.944Z153.469° SSE2024-12-27 03:19:49.944Z98.824° ESE25.193°2024-12-27 03:23:49.944Z49.069° ENE
9 mins2024-12-27 04:59:49.944Z239.156° WSW2024-12-27 05:03:49.944Z306.912° NW32.581°2024-12-27 05:08:49.944Z8.954° NNE
4 mins2024-12-27 12:11:49.944Z26.732° NE2024-12-27 12:13:49.944Z49.434° ENE13.831°2024-12-27 12:15:49.944Z71.801° E
9 mins2024-12-27 13:54:49.944Z338.157° N2024-12-27 13:58:49.944Z118.783° SE44.916°2024-12-27 14:03:49.944Z157.205° SSE
|